[[{"header":{"parameterUnit":"m.s-1","parameterCategory":2,"la1":30.2991,"la2":30.254,"lo1":-89.0895,"lo2":-89.0444,"dy":0.0017,"dx":0.0017,"nx":28,"ny":28,"refTime":"2023-04-29T21:00:00:Z","depth":"0","parameterNumber":2,"parameterNumberName":"U-component_of_CURRENTS"},"data":[0,0,0,0,0,0,0,0,0,0,0,0,0,0,0,0,0,0,0,0,0,0,0,0,0,0,0,0,0,0,0,0,0,0,0,0,0,0,0,0,0,0,0,0,0,0,0,0,0,0,0,0,0,0,0,0,0,0,0.1224,0.1222,0,0.1136,0.1136,0.1137,0.0917,0.091,0.0904,0.0898,0.0919,0.0926,0.0932,0,0,0,0,0,0,0,0,0,0,0,0,0,0.1571,0.1566,0.1224,0.1222,0.1219,0.1136,0.1136,0.1137,0.0918,0.091,0.0902,0.0895,0.0917,0.0925,0.0933,0,0,0,0,0,0,0,0,0,0,0,0,0,0.1464,0.1564,0.1225,0.1085,0.107,0.1135,0.1136,0.1137,0.092,0.091,0.09,0.0891,0.0914,0.0924,0.0934,0.1188,0,0,0.0964,0.0968,0,0,0,0,0,0,0,0,0.147,0.1454,0.1108,0.1094,0.1077,0.101,0.1265,0.1153,0.0922,0.0998,0.0898,0.0886,0.0954,0.096,0.0992,0.1189,0.119,0.0965,0.0971,0.0975,0.0978,0,0,0,0,0,0,0,0.1477,0.1458,0.1209,0.1106,0.1087,0.1151,0.1124,0.1246,0.1049,0.099,0.0969,0.0931,0.0948,0.0983,0.099,0.119,0.0964,0.0973,0.0979,0.0983,0.1542,0.155,0,0,0,0,0,0,0.1439,0.1463,0.1212,0.1205,0.1232,0.1149,0.112,0.1058,0.1044,0.1026,0.0939,0.0921,0.0971,0.0979,0.099,0.1215,0.0975,0.0984,0.099,0.1533,0.1544,0.1553,0,0,0,0,0,0,0.1447,0.1417,0.1215,0.1319,0.1294,0.1148,0.1084,0.1061,0.1066,0.1,0.0986,0.0959,0.0963,0.0976,0.1051,0.1216,0.0989,0.0998,0.1522,0.1536,0.1549,0.1714,0,0,0,0,0,0,0.1457,0.142,0.1462,0.1314,0.1285,0.1295,0.109,0.1065,0.1048,0.1023,0.1018,0.1008,0.0957,0.1036,0.1061,0.1225,0.1005,0.1511,0.1529,0.1544,0.1697,0.1732,0.1761,0,0,0,0,0,0.147,0.1557,0.1464,0.1437,0.1312,0.13,0.13,0.1177,0.1059,0.1136,0.1054,0.1007,0.1162,0.105,0.1077,0.1248,0.1503,0.1524,0.1543,0.1683,0.1725,0.176,0,0,0,0,0,0,0.1801,0.1536,0.1431,0.145,0.1387,0.1255,0.1345,0.1218,0.1227,0.1196,0.1093,0.1088,0.1212,0.1244,0.1122,0.1471,0.1345,0.1371,0.1443,0.1482,0.1513,0.158,0.1013,0,0,0,0,0,0.1872,0.1819,0.1627,0.1665,0.1643,0.1502,0.1504,0.139,0.1324,0.1314,0.1282,0.1296,0.1345,0.1402,0.1454,0.1671,0.1702,0.1818,0.1849,0.1875,0.1958,0.2077,0.2124,0.1619,0.1619,0.1619,0,0,0.2004,0.1867,0.1839,0.1728,0.1682,0.1699,0.1488,0.15,0.1532,0.1336,0.1445,0.1395,0.1415,0.1583,0.1659,0.1618,0.2045,0.1901,0.1921,0.1992,0.2102,0.215,0.2193,0.1633,0.163,0.1628,0,0,0.2226,0.2136,0.2147,0.2114,0.2012,0.1923,0.192,0.1798,0.1786,0.1838,0.1702,0.1751,0.1843,0.1893,0.1923,0.2213,0.2172,0.2245,0.25,0.2612,0.2653,0.2689,0.2801,0.2845,0.2301,0.2301,0.2301,0,0.2395,0.2365,0.2193,0.2225,0.2239,0.2018,0.2097,0.2088,0.2003,0.2048,0.1901,0.2025,0.2013,0.223,0.2287,0.229,0.2319,0.2318,0.2646,0.2682,0.2716,0.2821,0.2868,0.2311,0.231,0.2309,0.2308,0,0.2587,0.2605,0.2661,0.2565,0.2591,0.2648,0.2538,0.2578,0.2479,0.2423,0.2562,0.2513,0.2586,0.2609,0.2515,0.2802,0.2731,0.2618,0.252,0.2775,0.2872,0.2918,0.2326,0.2323,0.232,0.2317,0,0,0.2818,0.2777,0.2799,0.2808,0.2772,0.2774,0.291,0.295,0.2987,0.2977,0.3091,0.3177,0.3091,0.3131,0.3059,0.3164,0.339,0.3008,0.3009,0.3074,0.3638,0.3589,0.3632,0.3284,0.3293,0.33,0.3608,0,0.3019,0.3117,0.3071,0.3215,0.3261,0.3186,0.331,0.3324,0.3288,0.3352,0.3376,0.3429,0.3315,0.3302,0.342,0.3353,0.3519,0.3319,0.3428,0.3434,0.3318,0.3688,0.3606,0.3874,0.3652,0.3659,0.3665,0,0.3213,0.3235,0.3392,0.3455,0.348,0.3535,0.3633,0.3704,0.3773,0.3761,0.3851,0.3778,0.3979,0.3765,0.398,0.3833,0.3816,0.3768,0.3776,0.3718,0.3473,0.3591,0.3963,0.3759,0.3734,0.3728,0.3723,0,0.3353,0.3476,0.359,0.3618,0.365,0.3738,0.3767,0.383,0.3863,0.3997,0.3973,0.4198,0.4207,0.4307,0.4216,0.4112,0.4364,0.4206,0.42,0.4193,0.4157,0.4133,0.4316,0.4439,0.4439,0.4438,0.4437,0,0.3532,0.3603,0.3642,0.3666,0.3789,0.3832,0.393,0.3977,0.4052,0.4086,0.4161,0.42,0.4315,0.4401,0.4386,0.4464,0.4545,0.4378,0.4325,0.4216,0.4194,0.4031,0.3872,0.4449,0.4447,0.4445,0.4443,0,0.3561,0.3619,0.3681,0.3769,0.3807,0.3852,0.3901,0.3964,0.4036,0.4076,0.4123,0.425,0.4419,0.4513,0.4656,0.4637,0.4593,0.4713,0.4583,0.4513,0.4333,0.4186,0.419,0.4144,0.4872,0.4874,0.4875,0,0.3534,0.3596,0.3669,0.368,0.3684,0.3759,0.3822,0.3929,0.3962,0.4059,0.4087,0.4276,0.4346,0.4607,0.4756,0.4932,0.4632,0.4858,0.4698,0.4455,0.4253,0.3945,0.3884,0.4724,0.4724,0.4724,0.4723,0,0.3477,0.3511,0.3548,0.358,0.3631,0.3664,0.3746,0.3749,0.3879,0.3917,0.3976,0.4051,0.437,0.4508,0.4757,0.4857,0.4623,0.486,0.4667,0.428,0.3908,0.3788,0.436,0.4723,0.4723,0.4723,0.4723,0.4723,0.3398,0.3401,0.348,0.3474,0.3529,0.3542,0.3531,0.3609,0.3643,0.3658,0.3812,0.3879,0.4111,0.4502,0.4649,0.4774,0.4638,0.4579,0.4468,0.4214,0.4049,0.4637,0.4864,0.4865,0.4866,0.4866,0.4867,0,0.3328,0.336,0.3373,0.3383,0.3387,0.3447,0.3478,0.3444,0.3425,0.3507,0.3538,0.3683,0.3848,0.4132,0.4354,0.4282,0.4233,0.4168,0.3741,0.3747,0.4369,0.4238,0.4266,0.4266,0.4267,0.4267,0.4267,0.4267,0.3306,0.3303,0.3307,0.3262,0.3259,0.3236,0.3218,0.317,0.3186,0.3154,0.3209,0.3273,0.3437,0.3547,0.3635,0.3727,0.3451,0.3315,0.328,0.3681,0.3708,0.3734,0.3578,0.3468,0.3467,0.2591,0.2583,0.2577]},{"header":{"parameterUnit":"m.s-1","parameterCategory":2,"la1":30.2991,"la2":30.254,"lo1":-89.0895,"lo2":-89.0444,"dy":0.0017,"dx":0.0017,"nx":28,"ny":28,"refTime":"2023-04-29T21:00:00:Z","depth":"0","parameterNumber":3,"parameterNumberName":"V-component_of_CURRENTS"},"data":[0,0,0,0,0,0,0,0,0,0,0,0,0,0,0,0,0,0,0,0,0,0,0,0,0,0,0,0,0,0,0,0,0,0,0,0,0,0,0,0,0,0,0,0,0,0,0,0,0,0,0,0,0,0,0,0,0,0,-0.0603,-0.0603,0,-0.0631,-0.0631,-0.0632,-0.0676,-0.0677,-0.0677,-0.0678,-0.0508,-0.0503,-0.0498,0,0,0,0,0,0,0,0,0,0,0,0,0,-0.0617,-0.0617,-0.0603,-0.0603,-0.0603,-0.0631,-0.0631,-0.0632,-0.0676,-0.0677,-0.0677,-0.0678,-0.0509,-0.0504,-0.0498,0,0,0,0,0,0,0,0,0,0,0,0,0,-0.0628,-0.0616,-0.0603,-0.0626,-0.0628,-0.063,-0.0631,-0.0632,-0.0676,-0.0677,-0.0678,-0.0678,-0.0511,-0.0504,-0.0497,-0.0438,0,0,-0.0474,-0.0471,0,0,0,0,0,0,0,0,-0.0627,-0.0628,-0.0622,-0.0624,-0.0626,-0.0647,-0.0574,-0.0556,-0.0676,-0.0662,-0.0678,-0.0678,-0.0533,-0.0524,-0.0536,-0.043,-0.0423,-0.0474,-0.0469,-0.0466,-0.0464,0,0,0,0,0,0,0,-0.0627,-0.0627,-0.0618,-0.0622,-0.0624,-0.0643,-0.0646,-0.0572,-0.0593,-0.0663,-0.0666,-0.0662,-0.0533,-0.0544,-0.0532,-0.0421,-0.0474,-0.0467,-0.0463,-0.046,-0.0169,-0.0166,0,0,0,0,0,0,-0.0612,-0.0626,-0.0618,-0.0619,-0.0624,-0.0642,-0.0645,-0.0643,-0.0598,-0.0593,-0.0661,-0.0664,-0.0556,-0.0541,-0.0526,-0.0373,-0.0466,-0.0459,-0.0455,-0.0172,-0.0168,-0.0165,0,0,0,0,0,0,-0.0613,-0.0611,-0.0616,-0.062,-0.0621,-0.064,-0.0638,-0.0643,-0.0654,-0.0598,-0.059,-0.0666,-0.0556,-0.0536,-0.0417,-0.037,-0.0456,-0.0449,-0.0176,-0.0171,-0.0166,-0.0118,0,0,0,0,0,0,-0.0613,-0.0611,-0.0633,-0.0619,-0.062,-0.0607,-0.0637,-0.0643,-0.0648,-0.0652,-0.0598,-0.0584,-0.0555,-0.0428,-0.0409,-0.0361,-0.0443,-0.018,-0.0174,-0.0168,-0.0124,-0.0112,-0.0102,0,0,0,0,0,-0.0613,-0.0624,-0.0633,-0.0634,-0.064,-0.0606,-0.0608,-0.0627,-0.0647,-0.0642,-0.0578,-0.0586,-0.0377,-0.0418,-0.0397,-0.0346,-0.0183,-0.0176,-0.0168,-0.0129,-0.0115,-0.0103,0,0,0,0,0,0,-0.0641,-0.0628,-0.0639,-0.0647,-0.0624,-0.0611,-0.0626,-0.0623,-0.058,-0.0578,-0.0531,-0.0509,-0.0392,-0.0365,-0.0413,-0.0242,-0.0285,-0.0274,-0.0262,-0.0248,-0.0238,-0.0228,-0.0437,0,0,0,0,0,-0.0654,-0.0655,-0.0636,-0.0637,-0.0636,-0.0631,-0.0631,-0.0624,-0.0576,-0.0564,-0.0507,-0.0436,-0.0347,-0.0296,-0.0222,-0.0119,-0.0116,-0.0075,-0.0064,-0.0055,-0.003,-0.0018,-0.0005,-0.014,-0.014,-0.014,0,0,-0.0663,-0.0655,-0.0658,-0.0642,-0.0642,-0.0595,-0.0634,-0.0615,-0.0551,-0.0541,-0.0439,-0.0391,-0.0309,-0.0194,-0.0141,-0.0165,-0.0006,-0.0046,-0.0039,-0.0018,-0.0009,0.0003,0.0015,-0.0135,-0.0136,-0.0137,0,0,-0.0635,-0.0675,-0.0653,-0.0629,-0.0606,-0.0589,-0.0576,-0.054,-0.0517,-0.0407,-0.0377,-0.0293,-0.0167,-0.0099,-0.0047,0.0075,0.005,0.0089,0.0156,0.0167,0.0177,0.0186,0.023,0.0242,0.0094,0.0094,0.0094,0,-0.0643,-0.0607,-0.0638,-0.0592,-0.0555,-0.0573,-0.0503,-0.0477,-0.0391,-0.0331,-0.0359,-0.0157,-0.0116,0.0049,0.0079,0.0098,0.0103,0.0092,0.0177,0.0185,0.0194,0.0236,0.0249,0.0097,0.0097,0.0096,0.0096,0,-0.058,-0.055,-0.0533,-0.0473,-0.0441,-0.0391,-0.0342,-0.0295,-0.0267,-0.0215,-0.0068,-0.0012,0.011,0.0125,0.014,0.0244,0.023,0.0181,0.0129,0.0209,0.0251,0.0263,0.0102,0.01,0.0099,0.0099,0,0,-0.0566,-0.05,-0.049,-0.0435,-0.0369,-0.0325,-0.0223,-0.0116,-0.0044,0.0028,0.0154,0.0268,0.0271,0.0331,0.0348,0.035,0.0397,0.0287,0.0285,0.0309,0.0444,0.0438,0.0451,0.0339,0.0341,0.0343,0.0456,0,-0.0491,-0.0389,-0.0361,-0.0233,-0.0171,-0.0137,-0.004,0.0051,0.0113,0.0221,0.0286,0.0394,0.036,0.0399,0.0413,0.0422,0.0429,0.0373,0.0384,0.0387,0.0351,0.0465,0.0545,0.0652,0.0468,0.047,0.0471,0,-0.0411,-0.0354,-0.023,-0.0103,-0.0076,-0.0001,0.0135,0.0219,0.035,0.0397,0.051,0.0546,0.0659,0.0545,0.0624,0.0586,0.0524,0.0489,0.0491,0.0479,0.0404,0.0542,0.0681,0.0607,0.049,0.0488,0.0487,0,-0.0369,-0.0241,-0.0142,-0.01,0.0021,0.0094,0.0158,0.0279,0.0353,0.0499,0.0559,0.0701,0.0755,0.0741,0.0715,0.0658,0.0743,0.0655,0.0604,0.0603,0.0677,0.0679,0.0728,0.0649,0.0648,0.0648,0.0648,0,-0.0281,-0.0196,-0.0125,-0.0072,0.0047,0.0121,0.0246,0.0326,0.0442,0.0552,0.0637,0.0743,0.0781,0.0845,0.0789,0.079,0.0818,0.0661,0.0641,0.07,0.0703,0.0642,0.055,0.0652,0.0651,0.0651,0.065,0,-0.0236,-0.0187,-0.0076,0.0033,0.007,0.0144,0.026,0.0341,0.044,0.0584,0.0632,0.0792,0.0902,0.0941,0.0944,0.0883,0.0852,0.0823,0.0917,0.0905,0.0768,0.0676,0.0723,0.0743,0.0822,0.0822,0.0823,0,-0.0202,-0.0147,-0.004,0.0009,0.0059,0.0158,0.0225,0.033,0.0414,0.0617,0.0696,0.085,0.0992,0.1071,0.1045,0.1041,0.09,0.1,0.0888,0.0819,0.0701,0.0646,0.0655,0.1027,0.1029,0.1031,0.1032,0,-0.0148,-0.0126,-0.0058,0.0032,0.0106,0.0197,0.03,0.0364,0.0508,0.0633,0.0825,0.0954,0.1089,0.1201,0.1184,0.1127,0.0993,0.1029,0.0943,0.0873,0.0835,0.0826,0.0903,0.1048,0.1046,0.1045,0.1044,0.1044,-0.0132,-0.009,-0.002,0.0074,0.015,0.0255,0.0345,0.0458,0.0606,0.0848,0.0923,0.119,0.132,0.1365,0.1248,0.1137,0.1064,0.1046,0.0949,0.0909,0.0899,0.102,0.1125,0.1124,0.1123,0.1122,0.1121,0,-0.0103,-0.0055,0.0025,0.0139,0.0224,0.0267,0.0415,0.053,0.0719,0.0963,0.1149,0.1522,0.1523,0.1498,0.1362,0.1135,0.1066,0.0993,0.0949,0.0967,0.109,0.1068,0.1183,0.1183,0.1183,0.1183,0.1183,0.1183,-0.0084,-0.0011,0.0036,0.0186,0.0266,0.0411,0.0506,0.0691,0.0897,0.1304,0.1625,0.1863,0.2041,0.1476,0.1153,0.1045,0.0907,0.084,0.0756,0.0818,0.0816,0.0813,0.0775,0.0826,0.0825,0.0746,0.0745,0.0743]}],[{"header":{"parameterUnit":"m.s-1","parameterCategory":2,"la1":30.2991,"la2":30.254,"lo1":-89.0895,"lo2":-89.0444,"dy":0.0017,"dx":0.0017,"nx":28,"ny":28,"refTime":"2023-04-29T21:00:00:Z","depth":"2","parameterNumber":2,"parameterNumberName":"U-component_of_CURRENTS"},"data":[0,0,0,0,0,0,0,0,0,0,0,0,0,0,0,0,0,0,0,0,0,0,0,0,0,0,0,0,0,0,0,0,0,0,0,0,0,0,0,0,0,0,0,0,0,0,0,0,0,0,0,0,0,0,0,0,0,0,-0.0366,-0.0367,0,-0.0748,-0.0756,-0.0764,-0.073,-0.072,-0.071,-0.0701,-0.0371,-0.0371,-0.0372,0,0,0,0,0,0,0,0,0,0,0,0,0,-0.0831,-0.0818,-0.0366,-0.0367,-0.0367,-0.0747,-0.0756,-0.0766,-0.0732,-0.072,-0.0707,-0.0696,-0.037,-0.0371,-0.0372,0,0,0,0,0,0,0,0,0,0,0,0,0,-0.0902,-0.0814,-0.0366,-0.0363,-0.0363,-0.0745,-0.0757,-0.0768,-0.0734,-0.0719,-0.0704,-0.069,-0.037,-0.0371,-0.0372,-0.0677,0,0,-0.0374,-0.0375,0,0,0,0,0,0,0,0,-0.0897,-0.089,-0.0362,-0.0363,-0.0363,-0.0636,-0.0798,-0.0687,-0.0738,-0.0642,-0.07,-0.0683,-0.0375,-0.0375,-0.0555,-0.0662,-0.0648,-0.0374,-0.0375,-0.0375,-0.0375,0,0,0,0,0,0,0,-0.089,-0.0881,-0.0563,-0.0363,-0.0364,-0.0758,-0.0746,-0.079,-0.0609,-0.0649,-0.0636,-0.0611,-0.0374,-0.0556,-0.0543,-0.0643,-0.0374,-0.0375,-0.0376,-0.0376,-0.032,-0.0318,0,0,0,0,0,0,-0.0702,-0.0868,-0.055,-0.057,-0.0548,-0.0753,-0.0743,-0.0601,-0.0624,-0.0606,-0.0623,-0.0607,-0.0561,-0.0543,-0.053,-0.0163,-0.0375,-0.0376,-0.0376,-0.0322,-0.032,-0.0318,0,0,0,0,0,0,-0.0709,-0.0666,-0.0534,-0.0703,-0.0705,-0.0746,-0.0599,-0.0615,-0.0765,-0.0604,-0.0578,-0.074,-0.0549,-0.0528,-0.0278,-0.0172,-0.0376,-0.0377,-0.0324,-0.0321,-0.0319,0.011,0,0,0,0,0,0,-0.072,-0.0665,-0.0677,-0.0682,-0.0686,-0.072,-0.0609,-0.0632,-0.075,-0.0735,-0.0698,-0.0656,-0.0536,-0.0275,-0.0278,-0.0177,-0.0378,-0.0327,-0.0323,-0.032,0.0094,0.0128,0.0156,0,0,0,0,0,-0.0734,-0.0806,-0.0673,-0.0643,-0.0633,-0.072,-0.0772,-0.0791,-0.0769,-0.0876,-0.0622,-0.0655,-0.0259,-0.027,-0.0276,-0.0172,-0.0329,-0.0324,-0.032,0.008,0.0121,0.0156,0,0,0,0,0,0,-0.1053,-0.0804,-0.0659,-0.0647,-0.0628,-0.0693,-0.0839,-0.0854,-0.0822,-0.0731,-0.0591,-0.0529,-0.0267,-0.035,-0.0369,-0.0166,-0.0329,-0.0325,-0.0024,0.0014,0.0045,-0.0013,-0.0378,0,0,0,0,0,-0.1094,-0.1018,-0.0862,-0.0846,-0.0826,-0.0853,-0.0948,-0.0902,-0.0806,-0.0802,-0.0661,-0.0513,-0.0314,-0.0224,-0.0114,-0.0053,-0.019,-0.002,0.0012,0.004,-0.0021,-0.0063,-0.0038,-0.0303,-0.0303,-0.0303,0,0,-0.1175,-0.1055,-0.0997,-0.0908,-0.0904,-0.0857,-0.0884,-0.0952,-0.0798,-0.0753,-0.0515,-0.0393,-0.0265,-0.0024,0.0056,-0.0042,0.0051,0.0046,0.0073,-0.0007,-0.0055,-0.0029,-0.0006,-0.03,-0.0301,-0.0301,0,0,-0.1259,-0.1194,-0.1111,-0.1092,-0.1013,-0.1005,-0.0999,-0.0957,-0.0828,-0.0571,-0.0426,-0.0209,-0.0011,0.0155,0.0261,0.0442,0.0246,0.0403,0.0509,0.0477,0.0499,0.0516,0.043,0.0436,0.0392,0.0393,0.0393,0,-0.1343,-0.1174,-0.1154,-0.1075,-0.1034,-0.1016,-0.093,-0.0848,-0.0681,-0.0596,-0.037,-0.0114,0.0114,0.0292,0.0541,0.0529,0.0414,0.0411,0.0526,0.054,0.055,0.0456,0.0457,0.0414,0.0411,0.0409,0.0407,0,-0.1291,-0.1194,-0.1192,-0.0954,-0.0983,-0.0954,-0.072,-0.0676,-0.0463,-0.0355,-0.0084,0.0233,0.0328,0.0486,0.0704,0.0799,0.0668,0.0616,0.0456,0.0605,0.0494,0.0488,0.0444,0.0436,0.043,0.0425,0,0,-0.1247,-0.1136,-0.1112,-0.0995,-0.0902,-0.0887,-0.067,-0.053,-0.0419,-0.0153,0.0001,0.0503,0.0465,0.0571,0.0694,0.0807,0.1028,0.0806,0.0794,0.076,0.0883,0.0973,0.0972,0.0988,0.0988,0.0988,0.0797,0,-0.1137,-0.0992,-0.0962,-0.0805,-0.0709,-0.0676,-0.0483,-0.0379,-0.0178,-0.003,0.0179,0.042,0.0549,0.0693,0.0796,0.0974,0.1015,0.1078,0.0697,0.0684,0.0784,0.0972,0.0843,0.0677,0.0789,0.0788,0.0787,0,-0.1012,-0.0938,-0.0781,-0.0657,-0.0607,-0.0525,-0.0397,-0.0214,-0.0097,0.0082,0.0102,0.0223,0.0418,0.0601,0.0697,0.0706,0.0822,0.0942,0.0932,0.0834,0.0763,0.0525,0.0658,0.0774,0.0775,0.0776,0.0776,0,-0.0965,-0.08,-0.0683,-0.0636,-0.0502,-0.0421,-0.0345,-0.0241,-0.0073,0.0058,0.0155,0.0171,0.0378,0.0383,0.0707,0.0686,0.0831,0.0762,0.0845,0.0845,0.0562,0.0542,0.0785,0.0785,0.0785,0.0786,0.0786,0,-0.0858,-0.0752,-0.0649,-0.0578,-0.0438,-0.036,-0.0209,-0.0135,-0.0014,0.0101,0.0163,0.0283,0.0385,0.0487,0.06,0.0727,0.0659,0.087,0.0828,0.0715,0.0711,0.0621,0.0605,0.0779,0.078,0.0782,0.0783,0,-0.0796,-0.0734,-0.0595,-0.0454,-0.0406,-0.0304,-0.0139,-0.0042,0.0074,0.0217,0.0275,0.0406,0.0549,0.059,0.0742,0.0695,0.0767,0.0825,0.0698,0.0652,0.0774,0.0781,0.0734,0.0736,0.0738,0.074,0.0741,0,-0.075,-0.0674,-0.0529,-0.0461,-0.038,-0.0233,-0.0139,-0.0008,0.0083,0.0298,0.0364,0.0565,0.0671,0.0803,0.083,0.0803,0.0905,0.0687,0.0679,0.0818,0.078,0.0784,0.0788,0.044,0.0438,0.0437,0.0436,0,-0.0667,-0.0622,-0.0526,-0.0402,-0.0292,-0.0174,-0.0031,0.0033,0.019,0.0311,0.0483,0.0583,0.0758,0.0774,0.0842,0.0776,0.0654,0.0669,0.0809,0.0548,0.0547,0.0509,0.052,0.0427,0.0428,0.0429,0.0429,0.043,-0.0623,-0.0555,-0.0455,-0.0333,-0.0228,-0.0136,-0.0068,0.0057,0.0175,0.0323,0.0455,0.0588,0.0612,0.067,0.0697,0.0699,0.0695,0.0574,0.0572,0.0572,0.0649,0.0661,0.0568,0.057,0.0571,0.0573,0.0574,0,-0.0568,-0.0493,-0.0389,-0.0275,-0.0191,-0.0123,-0.0014,0.001,0.0103,0.0285,0.0406,0.0372,0.0437,0.0565,0.0577,0.0545,0.0437,0.0502,0.0383,0.0389,0.0395,0.0461,0.0331,0.0332,0.0332,0.0333,0,0,-0.0533,-0.0441,-0.0395,-0.0278,-0.0194,-0.0126,-0.0088,-0.0051,0.0044,0.0148,0.0267,0.0304,0.0446,0.0379,0.0361,0.043,0.0384,0.0349,0.0516,0.0376,0.0384,0.0383,0.0487,0,0,0,0,0]},{"header":{"parameterUnit":"m.s-1","parameterCategory":2,"la1":30.2991,"la2":30.254,"lo1":-89.0895,"lo2":-89.0444,"dy":0.0017,"dx":0.0017,"nx":28,"ny":28,"refTime":"2023-04-29T21:00:00:Z","depth":"2","parameterNumber":3,"parameterNumberName":"V-component_of_CURRENTS"},"data":[0,0,0,0,0,0,0,0,0,0,0,0,0,0,0,0,0,0,0,0,0,0,0,0,0,0,0,0,0,0,0,0,0,0,0,0,0,0,0,0,0,0,0,0,0,0,0,0,0,0,0,0,0,0,0,0,0,0,-0.0493,-0.0494,0,-0.0575,-0.0575,-0.0576,-0.0644,-0.0645,-0.0645,-0.0646,-0.0556,-0.0553,-0.055,0,0,0,0,0,0,0,0,0,0,0,0,0,-0.0287,-0.0291,-0.0493,-0.0494,-0.0496,-0.0575,-0.0575,-0.0576,-0.0643,-0.0645,-0.0646,-0.0647,-0.0557,-0.0554,-0.055,0,0,0,0,0,0,0,0,0,0,0,0,0,-0.0371,-0.0292,-0.0493,-0.0541,-0.0546,-0.0574,-0.0576,-0.0577,-0.0643,-0.0645,-0.0646,-0.0647,-0.0559,-0.0554,-0.0549,-0.0489,0,0,-0.0534,-0.0532,0,0,0,0,0,0,0,0,-0.0366,-0.0378,-0.0532,-0.0537,-0.0544,-0.0603,-0.047,-0.054,-0.0643,-0.0603,-0.0646,-0.0648,-0.0557,-0.0552,-0.0563,-0.0485,-0.0481,-0.0533,-0.053,-0.0528,-0.0527,0,0,0,0,0,0,0,-0.036,-0.0374,-0.0523,-0.0534,-0.054,-0.0521,-0.0535,-0.0484,-0.0565,-0.0607,-0.0613,-0.0626,-0.0558,-0.0567,-0.0561,-0.048,-0.0534,-0.0529,-0.0526,-0.0524,-0.0396,-0.0395,0,0,0,0,0,0,-0.0361,-0.037,-0.052,-0.0525,-0.046,-0.0524,-0.054,-0.058,-0.057,-0.0572,-0.0624,-0.0629,-0.0575,-0.0566,-0.0557,-0.0472,-0.0528,-0.0524,-0.0521,-0.0396,-0.0396,-0.0395,0,0,0,0,0,0,-0.0357,-0.0375,-0.0517,-0.0449,-0.0467,-0.0528,-0.0571,-0.0581,-0.0601,-0.0586,-0.0584,-0.0636,-0.0576,-0.0564,-0.0487,-0.0469,-0.0522,-0.0517,-0.0397,-0.0396,-0.0395,-0.0308,0,0,0,0,0,0,-0.0351,-0.0373,-0.0376,-0.0451,-0.0471,-0.0529,-0.057,-0.0582,-0.0607,-0.0614,-0.0593,-0.0587,-0.0576,-0.0494,-0.0482,-0.0463,-0.0513,-0.0397,-0.0396,-0.0396,-0.0311,-0.0304,-0.0298,0,0,0,0,0,-0.0343,-0.0349,-0.0376,-0.0393,-0.0483,-0.0528,-0.0535,-0.058,-0.0606,-0.0605,-0.0573,-0.0589,-0.0483,-0.0487,-0.0474,-0.0453,-0.0398,-0.0397,-0.0396,-0.0314,-0.0306,-0.0298,0,0,0,0,0,0,-0.0267,-0.0359,-0.039,-0.0426,-0.0471,-0.0541,-0.054,-0.0577,-0.0558,-0.0567,-0.0545,-0.0533,-0.0458,-0.0472,-0.0478,-0.0423,-0.0458,-0.0454,-0.0401,-0.0392,-0.0386,-0.0399,-0.0509,0,0,0,0,0,-0.0251,-0.028,-0.0362,-0.0388,-0.0411,-0.0474,-0.0491,-0.0541,-0.0549,-0.0549,-0.0533,-0.0511,-0.0444,-0.043,-0.0385,-0.0338,-0.036,-0.0334,-0.0327,-0.0321,-0.0327,-0.0351,-0.0346,-0.0392,-0.0392,-0.0392,0,0,-0.0232,-0.0281,-0.0301,-0.0371,-0.0412,-0.0427,-0.0488,-0.0536,-0.0536,-0.0532,-0.0501,-0.0463,-0.0419,-0.0359,-0.0335,-0.0371,-0.0311,-0.032,-0.0314,-0.0323,-0.0349,-0.0345,-0.0341,-0.0391,-0.0391,-0.0391,0,0,-0.0199,-0.0254,-0.0262,-0.0291,-0.0359,-0.0398,-0.0411,-0.0487,-0.0504,-0.047,-0.0454,-0.0407,-0.0345,-0.0312,-0.0279,-0.0214,-0.0253,-0.0224,-0.0216,-0.0238,-0.0235,-0.0232,-0.0213,-0.021,-0.0248,-0.0248,-0.0248,0,-0.0169,-0.0196,-0.0264,-0.0271,-0.028,-0.038,-0.0378,-0.0405,-0.0442,-0.0434,-0.0453,-0.036,-0.0319,-0.0229,-0.0209,-0.0195,-0.0214,-0.0238,-0.0228,-0.0227,-0.0225,-0.0208,-0.0205,-0.0243,-0.0244,-0.0244,-0.0245,0,-0.014,-0.0152,-0.0158,-0.0195,-0.021,-0.0236,-0.029,-0.0312,-0.0343,-0.0366,-0.0311,-0.027,-0.0218,-0.0209,-0.0172,-0.0142,-0.0155,-0.0191,-0.0244,-0.0215,-0.0198,-0.0196,-0.0237,-0.0239,-0.024,-0.0241,0,0,-0.0104,-0.0132,-0.0129,-0.0122,-0.0177,-0.0194,-0.019,-0.0207,-0.02,-0.0239,-0.0204,-0.012,-0.0139,-0.0106,-0.0088,-0.0127,-0.0097,-0.0163,-0.0166,-0.0135,-0.0127,-0.0042,-0.0033,-0.0146,-0.0146,-0.0146,-0.0103,0,-0.0058,-0.0038,-0.0061,-0.0031,-0.0029,-0.0087,-0.006,-0.0092,-0.0117,-0.0111,-0.0123,-0.0066,-0.0088,-0.0053,-0.0086,-0.0076,-0.0097,-0.0104,-0.0169,-0.0169,-0.0092,-0.003,-0.0125,-0.0089,-0.0102,-0.0102,-0.0102,0,-0.0015,-0.0006,0.0033,0.0051,0.0049,0.0062,0.0068,0.0075,0.0053,0.0038,0.0035,0.0022,0.0042,-0.0016,-0.0032,-0.0041,-0.007,-0.0108,-0.0108,-0.0066,-0.0083,-0.013,-0.0086,-0.01,-0.01,-0.01,-0.01,0,0.0047,0.0067,0.0108,0.011,0.0109,0.0131,0.0139,0.0122,0.0144,0.0131,0.0143,0.0123,0.0142,0.0071,0.0032,-0.0004,-0.0026,-0.0079,-0.0036,-0.0029,-0.014,-0.0141,-0.0119,-0.0119,-0.0119,-0.0119,-0.0119,0,0.0103,0.0137,0.0141,0.0158,0.0221,0.0201,0.026,0.025,0.0258,0.0306,0.0239,0.0273,0.015,0.0126,0.0059,0.005,0.0011,-0.0008,-0.0011,-0.0104,-0.0104,-0.0156,-0.0161,-0.0118,-0.0118,-0.0118,-0.0119,0,0.0156,0.0158,0.0207,0.0231,0.0247,0.0293,0.0342,0.038,0.0376,0.0434,0.0442,0.0395,0.038,0.0273,0.0181,0.0128,0.008,0.0075,0.0006,-0.0004,0.0082,0.0081,0.0137,0.014,0.0143,0.0145,0.0147,0,0.0182,0.021,0.0263,0.0308,0.0325,0.0385,0.0432,0.0441,0.0481,0.0527,0.0566,0.0556,0.0582,0.0497,0.0364,0.0281,0.0196,0.0127,0.0051,0.0118,0.0109,0.0103,0.0098,-0.0059,-0.0058,-0.0058,-0.0058,0,0.0238,0.0257,0.0296,0.0388,0.0451,0.052,0.0583,0.0627,0.0655,0.0698,0.0783,0.0814,0.075,0.0609,0.0469,0.0379,0.0135,0.0135,0.019,-0.0081,-0.0055,-0.0068,-0.0069,-0.0057,-0.0057,-0.0057,-0.0057,-0.0057,0.0284,0.0326,0.0386,0.0481,0.0562,0.0652,0.0726,0.0779,0.0857,0.093,0.0936,0.0939,0.0673,0.0505,0.0393,0.0275,0.029,0.0119,0.0113,0.0107,0.0105,0.0137,0.0172,0.0173,0.0174,0.0175,0.0176,0,0.0339,0.0394,0.048,0.0592,0.0698,0.0732,0.0831,0.0896,0.1003,0.102,0.1087,0.0758,0.0614,0.0424,0.0283,0.0188,0.0118,0.01,-0.0037,-0.0039,-0.004,-0.0055,-0.0028,-0.0028,-0.0027,-0.0027,0,0,0.0371,0.0456,0.0502,0.0691,0.079,0.0936,0.1008,0.1087,0.1105,0.1054,0.098,0.0883,0.0602,0.0367,0.0175,0.013,0.0094,0.0107,0.0265,0.0123,0.0125,-0.0052,-0.0078,0,0,0,0,0]}],[{"header":{"parameterUnit":"m.s-1","parameterCategory":2,"la1":30.2991,"la2":30.254,"lo1":-89.0895,"lo2":-89.0444,"dy":0.0017,"dx":0.0017,"nx":28,"ny":28,"refTime":"2023-04-29T21:00:00:Z","depth":"4","parameterNumber":2,"parameterNumberName":"U-component_of_CURRENTS"},"data":[0,0,0,0,0,0,0,0,0,0,0,0,0,0,0,0,0,0,0,0,0,0,0,0,0,0,0,0,0,0,0,0,0,0,0,0,0,0,0,0,0,0,0,0,0,0,0,0,0,0,0,0,0,0,0,0,0,0,-0.0521,-0.0519,0,-0.0386,-0.0384,-0.0383,-0.0306,-0.0306,-0.0306,-0.0306,-0.0298,-0.0298,-0.0298,0,0,0,0,0,0,0,0,0,0,0,0,0,-0.0651,-0.0649,-0.0521,-0.0519,-0.0518,-0.0386,-0.0384,-0.0382,-0.0306,-0.0306,-0.0306,-0.0306,-0.0298,-0.0298,-0.0298,0,0,0,0,0,0,0,0,0,0,0,0,0,-0.0562,-0.0648,-0.0521,-0.0465,-0.0458,-0.0387,-0.0384,-0.0382,-0.0306,-0.0306,-0.0306,-0.0306,-0.0298,-0.0298,-0.0298,-0.0303,0,0,-0.0297,-0.0297,0,0,0,0,0,0,0,0,-0.0567,-0.0558,-0.0475,-0.0468,-0.0461,-0.0363,-0.0427,-0.0362,-0.0306,-0.0363,-0.0306,-0.0306,-0.0332,-0.0329,-0.0301,-0.0302,-0.0302,-0.0297,-0.0297,-0.0297,-0.0297,0,0,0,0,0,0,0,-0.0574,-0.0563,-0.0467,-0.0473,-0.0465,-0.0425,-0.0412,-0.0413,-0.0353,-0.0358,-0.0353,-0.0339,-0.0329,-0.0302,-0.0301,-0.0302,-0.0297,-0.0297,-0.0297,-0.0297,-0.0402,-0.0405,0,0,0,0,0,0,-0.0595,-0.0569,-0.0471,-0.0463,-0.0516,-0.0423,-0.0409,-0.0394,-0.035,-0.0342,-0.0339,-0.0336,-0.0302,-0.0301,-0.0301,-0.0354,-0.0297,-0.0297,-0.0297,-0.0399,-0.0403,-0.0406,0,0,0,0,0,0,-0.0599,-0.0588,-0.0476,-0.0513,-0.0496,-0.0422,-0.0405,-0.0392,-0.0369,-0.0334,-0.0328,-0.0332,-0.0302,-0.0301,-0.0316,-0.0352,-0.0297,-0.0297,-0.0396,-0.04,-0.0404,-0.043,0,0,0,0,0,0,-0.0603,-0.059,-0.059,-0.0515,-0.0495,-0.0444,-0.0405,-0.0389,-0.0361,-0.0356,-0.0326,-0.0324,-0.0301,-0.0316,-0.0316,-0.0351,-0.0297,-0.0392,-0.0398,-0.0403,-0.0426,-0.0435,-0.0443,0,0,0,0,0,-0.0608,-0.0603,-0.0591,-0.0579,-0.0497,-0.0444,-0.0431,-0.0376,-0.0362,-0.0354,-0.0342,-0.0325,-0.0351,-0.0317,-0.0317,-0.0352,-0.039,-0.0396,-0.0403,-0.0422,-0.0433,-0.0443,0,0,0,0,0,0,-0.065,-0.0592,-0.0578,-0.0554,-0.0511,-0.0432,-0.0419,-0.0386,-0.0365,-0.0371,-0.034,-0.0338,-0.0373,-0.0368,-0.0332,-0.0407,-0.0377,-0.0384,-0.0393,-0.0403,-0.0411,-0.0398,-0.0297,0,0,0,0,0,-0.0664,-0.0651,-0.059,-0.0573,-0.0558,-0.0495,-0.0469,-0.0436,-0.0404,-0.0392,-0.037,-0.0376,-0.0397,-0.0402,-0.0413,-0.0439,-0.0421,-0.0474,-0.0482,-0.0489,-0.0483,-0.0504,-0.0512,-0.0427,-0.0427,-0.0427,0,0,-0.0677,-0.0643,-0.0636,-0.0583,-0.0547,-0.0524,-0.0479,-0.0449,-0.0428,-0.0401,-0.0383,-0.0401,-0.0414,-0.0444,-0.0461,-0.0441,-0.0503,-0.0497,-0.0502,-0.0492,-0.0511,-0.0519,-0.0526,-0.0431,-0.043,-0.043,0,0,-0.0686,-0.0669,-0.0659,-0.0629,-0.0584,-0.0552,-0.0552,-0.049,-0.0463,-0.0452,-0.0449,-0.0479,-0.0484,-0.0498,-0.051,-0.0577,-0.055,-0.0607,-0.0626,-0.0647,-0.0653,-0.0658,-0.0625,-0.0627,-0.0606,-0.0606,-0.0606,0,-0.0701,-0.0675,-0.0648,-0.0627,-0.0606,-0.0573,-0.0557,-0.0527,-0.0477,-0.0464,-0.0458,-0.0486,-0.0506,-0.0542,-0.0582,-0.0591,-0.0586,-0.0576,-0.0653,-0.0658,-0.0662,-0.0628,-0.0629,-0.0608,-0.0608,-0.0608,-0.0608,0,-0.0694,-0.0678,-0.0671,-0.0641,-0.0624,-0.0605,-0.057,-0.0558,-0.0538,-0.0503,-0.0521,-0.0537,-0.0555,-0.0588,-0.0607,-0.0669,-0.0648,-0.0659,-0.0613,-0.0672,-0.0632,-0.0633,-0.0611,-0.0611,-0.061,-0.0609,0,0,-0.0696,-0.0672,-0.0666,-0.0655,-0.0628,-0.0608,-0.0603,-0.0572,-0.0562,-0.054,-0.0524,-0.0586,-0.0594,-0.0614,-0.0646,-0.0676,-0.0716,-0.0696,-0.0697,-0.0636,-0.073,-0.066,-0.0653,-0.0747,-0.0748,-0.0749,-0.0679,0,-0.0689,-0.0666,-0.0656,-0.0642,-0.0626,-0.0613,-0.0606,-0.0585,-0.0569,-0.0551,-0.0562,-0.0574,-0.0602,-0.0633,-0.0669,-0.0715,-0.0726,-0.0731,-0.0706,-0.0704,-0.0613,-0.0656,-0.0753,-0.068,-0.068,-0.068,-0.068,0,-0.0668,-0.0655,-0.0645,-0.0632,-0.0626,-0.0625,-0.0617,-0.0602,-0.0585,-0.0573,-0.0581,-0.0584,-0.063,-0.0651,-0.0699,-0.0707,-0.0729,-0.0743,-0.0741,-0.0665,-0.0637,-0.062,-0.0682,-0.0682,-0.0682,-0.0681,-0.0681,0,-0.0656,-0.0639,-0.0638,-0.063,-0.0619,-0.0621,-0.0621,-0.0609,-0.0594,-0.0592,-0.0589,-0.061,-0.063,-0.0664,-0.0695,-0.0716,-0.0722,-0.0743,-0.0674,-0.0666,-0.0733,-0.0729,-0.0768,-0.0768,-0.0768,-0.0768,-0.0769,0,-0.0627,-0.062,-0.0636,-0.0623,-0.0626,-0.0623,-0.062,-0.0618,-0.0614,-0.0596,-0.061,-0.0599,-0.0648,-0.0647,-0.0679,-0.066,-0.0699,-0.0671,-0.0655,-0.0745,-0.0743,-0.0731,-0.0728,-0.0766,-0.0766,-0.0767,-0.0767,0,-0.0597,-0.0608,-0.06,-0.0607,-0.0614,-0.0615,-0.0618,-0.0607,-0.0617,-0.0599,-0.0601,-0.0601,-0.0593,-0.0595,-0.0631,-0.0625,-0.0623,-0.0604,-0.0652,-0.064,-0.0551,-0.0551,-0.052,-0.0517,-0.0515,-0.0513,-0.0511,0,-0.0576,-0.0573,-0.0588,-0.0592,-0.0596,-0.0601,-0.0596,-0.0604,-0.0589,-0.0584,-0.0566,-0.0557,-0.0549,-0.0496,-0.0536,-0.0521,-0.0535,-0.0513,-0.0586,-0.0544,-0.0531,-0.0535,-0.0537,-0.0507,-0.0507,-0.0506,-0.0505,0,-0.0539,-0.0557,-0.0553,-0.0562,-0.0566,-0.0554,-0.0549,-0.0535,-0.0531,-0.0559,-0.0504,-0.0483,-0.0452,-0.0448,-0.0424,-0.0433,-0.0524,-0.0489,-0.0496,-0.0563,-0.0528,-0.0519,-0.0524,-0.0497,-0.0498,-0.0499,-0.05,0,-0.0519,-0.0515,-0.0523,-0.0526,-0.0527,-0.0492,-0.0494,-0.0464,-0.0452,-0.0453,-0.0433,-0.0419,-0.0432,-0.0399,-0.0388,-0.0372,-0.0391,-0.0403,-0.0414,-0.0424,-0.0431,-0.0375,-0.0278,0,0,0,0,0,-0.0495,-0.0488,-0.0485,-0.0468,-0.0463,-0.0459,-0.0453,-0.0453,-0.046,-0.0403,-0.0414,-0.0377,-0.0344,-0.0344,-0.0311,-0.0366,-0.0402,-0.0329,-0.0423,-0.0451,-0.0461,-0.0482,0,0,0,0,0,0,-0.0477,-0.048,-0.0471,-0.0421,-0.0395,-0.037,-0.036,-0.0363,-0.033,-0.0349,-0.0326,-0.0357,-0.0327,-0.0348,-0.0303,-0.0305,-0.0358,-0.0335,-0.0334,-0.0446,-0.0455,-0.0462,-0.0488,0,0,0,0,0]},{"header":{"parameterUnit":"m.s-1","parameterCategory":2,"la1":30.2991,"la2":30.254,"lo1":-89.0895,"lo2":-89.0444,"dy":0.0017,"dx":0.0017,"nx":28,"ny":28,"refTime":"2023-04-29T21:00:00:Z","depth":"4","parameterNumber":3,"parameterNumberName":"V-component_of_CURRENTS"},"data":[0,0,0,0,0,0,0,0,0,0,0,0,0,0,0,0,0,0,0,0,0,0,0,0,0,0,0,0,0,0,0,0,0,0,0,0,0,0,0,0,0,0,0,0,0,0,0,0,0,0,0,0,0,0,0,0,0,0,0.0271,0.0272,0,0.0322,0.0323,0.0323,0.0359,0.0359,0.036,0.036,0.0379,0.0379,0.0379,0,0,0,0,0,0,0,0,0,0,0,0,0,0.0234,0.0234,0.0271,0.0272,0.0273,0.0322,0.0323,0.0323,0.0359,0.0359,0.036,0.0361,0.0379,0.0379,0.0379,0,0,0,0,0,0,0,0,0,0,0,0,0,0.0262,0.0234,0.0271,0.0298,0.0301,0.0322,0.0323,0.0323,0.0359,0.0359,0.036,0.0361,0.0379,0.0379,0.0379,0.0367,0,0,0.038,0.038,0,0,0,0,0,0,0,0,0.026,0.0263,0.0293,0.0296,0.0299,0.0336,0.0317,0.0337,0.0359,0.0335,0.036,0.0361,0.0362,0.0364,0.037,0.0368,0.0369,0.038,0.038,0.038,0.038,0,0,0,0,0,0,0,0.0258,0.0261,0.029,0.0294,0.0298,0.0317,0.0322,0.0321,0.0342,0.0337,0.034,0.0348,0.0364,0.037,0.0371,0.0369,0.038,0.038,0.038,0.038,0.0287,0.0285,0,0,0,0,0,0,0.0253,0.0259,0.0288,0.0291,0.0283,0.0318,0.0322,0.0322,0.0343,0.0348,0.0348,0.035,0.0369,0.037,0.0371,0.0308,0.038,0.038,0.038,0.029,0.0287,0.0284,0,0,0,0,0,0,0.0252,0.0255,0.0286,0.0278,0.0284,0.0317,0.0317,0.0323,0.033,0.0352,0.0356,0.0349,0.037,0.0371,0.0361,0.0311,0.038,0.038,0.0293,0.0289,0.0285,0.0213,0,0,0,0,0,0,0.025,0.0254,0.0252,0.0278,0.0284,0.0291,0.0317,0.0324,0.0335,0.0338,0.0354,0.0357,0.037,0.0361,0.0361,0.0312,0.038,0.0296,0.0291,0.0287,0.0218,0.0207,0.0197,0,0,0,0,0,0.0249,0.0248,0.0252,0.0255,0.0281,0.0291,0.0295,0.0321,0.0334,0.033,0.0338,0.0356,0.033,0.036,0.0361,0.031,0.0298,0.0293,0.0287,0.0223,0.0209,0.0197,0,0,0,0,0,0,0.0236,0.0252,0.0257,0.0262,0.027,0.0297,0.0304,0.0315,0.032,0.032,0.0342,0.0344,0.0305,0.0319,0.0352,0.0265,0.0309,0.0303,0.026,0.0247,0.0236,0.0264,0.038,0,0,0,0,0,0.023,0.0229,0.0246,0.0248,0.0252,0.0274,0.0282,0.0291,0.0301,0.0305,0.0318,0.0311,0.028,0.0277,0.0262,0.0233,0.0262,0.0193,0.0183,0.0174,0.0193,0.017,0.016,0.0265,0.0265,0.0266,0,0,0.0227,0.0235,0.0236,0.0244,0.0256,0.025,0.028,0.0283,0.0276,0.0304,0.0299,0.0278,0.0262,0.0218,0.0201,0.0229,0.0159,0.0167,0.0159,0.0185,0.0163,0.0153,0.0144,0.0262,0.0262,0.0263,0,0,0.0214,0.0225,0.0216,0.0217,0.0223,0.0233,0.023,0.0246,0.0253,0.0237,0.0235,0.02,0.0179,0.0157,0.0139,0.0064,0.0098,0.0034,0.0014,-0.0012,-0.0019,-0.0026,0.0011,0.0008,0.0036,0.0036,0.0036,0,0.021,0.0195,0.0215,0.0202,0.0198,0.0221,0.0201,0.0211,0.0219,0.0212,0.0225,0.0163,0.0151,0.0087,0.0051,0.0042,0.0053,0.0065,-0.0022,-0.0028,-0.0034,0.0005,0.0003,0.0032,0.0032,0.0032,0.0033,0,0.0183,0.017,0.0166,0.0152,0.015,0.0137,0.0148,0.0144,0.0148,0.015,0.0101,0.0088,0.0051,0.0018,0.0013,-0.0055,-0.0025,-0.0037,0.0018,-0.0048,-0.0003,-0.0004,0.0026,0.0027,0.0028,0.0029,0,0,0.0173,0.015,0.0146,0.0127,0.0117,0.0114,0.0096,0.008,0.0068,0.0063,0.0039,-0.0025,-0.0029,-0.0049,-0.007,-0.0086,-0.0122,-0.0082,-0.0081,-0.0028,-0.0138,-0.0137,-0.0136,-0.0161,-0.0162,-0.0163,-0.0085,0,0.0141,0.0103,0.0097,0.0058,0.0039,0.0041,0.0025,0.0013,0.001,-0.0002,-0.0021,-0.0057,-0.0056,-0.009,-0.0111,-0.0134,-0.013,-0.0138,-0.0095,-0.0091,-0.007,-0.014,-0.0166,-0.0085,-0.0085,-0.0085,-0.0085,0,0.0105,0.0085,0.004,0.0004,-0.0003,-0.0023,-0.0051,-0.0062,-0.0076,-0.0082,-0.0109,-0.0114,-0.0151,-0.0138,-0.0159,-0.0171,-0.0153,-0.0145,-0.0143,-0.011,-0.0093,-0.001,-0.0086,-0.0086,-0.0086,-0.0086,-0.0086,0,0.0081,0.0041,0.0002,-0.001,-0.004,-0.0062,-0.0076,-0.0093,-0.0104,-0.0128,-0.0142,-0.0173,-0.019,-0.0192,-0.0171,-0.0182,-0.0163,-0.0177,-0.0134,-0.0131,-0.0116,-0.0109,-0.0168,-0.0168,-0.0168,-0.0168,-0.0168,0,0.0041,0.0011,-0.001,-0.0031,-0.0073,-0.0085,-0.0124,-0.0138,-0.0157,-0.018,-0.0183,-0.0203,-0.0211,-0.0198,-0.0177,-0.0152,-0.0167,-0.0134,-0.0128,-0.0147,-0.0146,-0.0114,-0.0109,-0.0165,-0.0166,-0.0166,-0.0167,0,0.0012,-0.0004,-0.0043,-0.0075,-0.0088,-0.0113,-0.0148,-0.017,-0.0184,-0.0211,-0.0223,-0.0234,-0.0236,-0.0196,-0.0186,-0.016,-0.0134,-0.0107,-0.0083,-0.0077,-0.0073,-0.0073,-0.007,-0.007,-0.007,-0.0069,-0.0069,0,-0.0012,-0.0032,-0.0066,-0.0085,-0.0102,-0.0137,-0.0163,-0.0186,-0.0206,-0.0231,-0.0247,-0.0248,-0.025,-0.0206,-0.0183,-0.0114,-0.0105,-0.0064,-0.0113,-0.0077,-0.0071,-0.0071,-0.0071,-0.0069,-0.0069,-0.0069,-0.0069,0,-0.0048,-0.0051,-0.0077,-0.0108,-0.0138,-0.0176,-0.021,-0.0228,-0.0253,-0.0256,-0.0277,-0.0263,-0.0246,-0.0224,-0.0153,-0.0112,-0.0094,-0.0061,-0.0062,-0.0108,-0.0075,-0.0069,-0.007,-0.0068,-0.0068,-0.0068,-0.0068,0,-0.0066,-0.0083,-0.0104,-0.0129,-0.0165,-0.0208,-0.0229,-0.0256,-0.0277,-0.0292,-0.0302,-0.0284,-0.0274,-0.022,-0.0169,-0.0122,-0.0124,-0.0109,-0.0107,-0.0108,-0.0156,-0.0121,-0.0126,0,0,0,0,0,-0.0083,-0.0097,-0.0124,-0.0159,-0.0191,-0.0209,-0.0256,-0.0271,-0.0288,-0.0304,-0.0302,-0.0287,-0.024,-0.0226,-0.0182,-0.0169,-0.0113,-0.0115,-0.0093,-0.0062,-0.0063,-0.0117,0,0,0,0,0,0,-0.01,-0.0122,-0.0126,-0.017,-0.0192,-0.0237,-0.0267,-0.0284,-0.0293,-0.03,-0.0278,-0.0261,-0.0216,-0.0255,-0.0173,-0.0161,-0.014,-0.009,-0.0089,-0.0062,-0.0063,-0.0064,-0.0119,0,0,0,0,0]}]]